Temperature
-9 -9 -8 -7 -7 -6 -6 -6 -5 -4 -4 -3 -1 -0 1 3 4 6 7 8 8 9 9 10 10 11 12 12 12 13 13 13 13 14 14 14 14 14
-10 -9 -8 -7 -7 -7 -6 -6 -5 -5 -4 -3 -3 -2 -0 1 2 4 5 7 8 8 9 9 10 11 11 12 12 12 12 13 13 13 13 13 13 14
-10 -9 -8 -8 -7 -7 -6 -6 -5 -5 -4 -4 -3 -2 -1 -0 1 2 4 5 7 7 8 9 10 10 11 11 12 12 12 12 12 13 13 13 13 13
-10 -9 -8 -8 -7 -7 -7 -6 -6 -5 -5 -4 -4 -3 -2 -1 0 1 3 4 6 7 8 8 9 10 10 11 11 12 12 12 12 12 12 13 13 13
-10 -9 -8 -8 -7 -7 -7 -6 -6 -5 -5 -5 -4 -3 -2 -1 -0 1 2 3 4 6 7 8 8 9 10 11 11 11 12 12 12 12 12 12 12 12
-10 -9 -9 -8 -8 -7 -7 -6 -6 -6 -5 -5 -4 -3 -3 -2 -1 0 1 2 3 5 6 7 8 9 10 10 11 11 11 12 12 12 12 12 12 12
-9 -9 -8 -8 -8 -7 -7 -7 -6 -6 -6 -5 -5 -4 -3 -2 -2 -1 0 2 3 4 6 7 8 8 9 10 10 11 11 11 12 12 12 12 12 12
-9 -9 -8 -8 -8 -8 -7 -7 -7 -7 -7 -6 -5 -5 -4 -4 -3 -2 -0 1 2 4 5 6 6 7 8 9 10 10 11 11 11 12 12 12 12 12
-9 -9 -9 -8 -8 -8 -8 -8 -7 -7 -7 -7 -7 -6 -6 -5 -4 -2 -1 -0 2 3 4 5 5 6 7 8 9 9 10 10 11 11 11 11 11 11
-10 -9 -9 -9 -9 -8 -8 -8 -8 -8 -8 -8 -7 -7 -6 -5 -4 -3 -2 -0 1 2 3 4 5 5 6 6 7 8 9 9 10 10 10 10 10 10
-10 -10 -9 -9 -9 -9 -9 -9 -8 -8 -8 -8 -8 -7 -6 -5 -5 -3 -2 -1 0 2 3 4 4 4 5 5 6 7 7 8 8 9 9 9 9 9
-11 -10 -10 -10 -10 -10 -10 -9 -9 -9 -9 -8 -8 -7 -6 -6 -5 -4 -3 -2 -1 1 2 3 3 4 4 4 4 5 6 6 7 7 8 8 8 8
-11 -11 -11 -11 -11 -11 -11 -11 -11 -10 -9 -9 -8 -8 -7 -6 -5 -5 -4 -3 -1 0 1 2 3 4 3 3 3 3 4 4 5 5 5 6 6 6
-12 -12 -12 -12 -11 -11 -11 -11 -11 -10 -10 -9 -9 -8 -8 -7 -6 -6 -5 -3 -2 -1 0 1 2 3 3 3 2 2 2 3 3 3 3 3 3 3
-13 -13 -13 -12 -12 -11 -12 -11 -11 -11 -10 -10 -10 -10 -10 -9 -7 -6 -5 -4 -3 -2 -0 1 2 3 3 3 2 1 1 1 1 2 2 2 2 2
-13 -13 -13 -13 -12 -12 -12 -12 -12 -12 -12 -12 -11 -11 -10 -9 -8 -7 -6 -5 -3 -3 -2 -0 1 1 2 2 2 1 1 1 0 1 1 1 1 1
-13 -13 -13 -13 -13 -13 -13 -13 -13 -13 -12 -12 -12 -11 -11 -10 -9 -8 -7 -6 -5 -4 -3 -2 -1 -0 0 0 0 0 0 0 -0 -0 0 -0 -0 -0
-13 -14 -14 -14 -14 -14 -14 -14 -14 -14 -13 -13 -13 -12 -12 -11 -10 -10 -9 -8 -7 -6 -5 -4 -3 -2 -1 -2 -2 -1 -0 -1 -1 -1 -0 -0 -0 -0
-14 -14 -14 -14 -14 -15 -15 -15 -15 -14 -14 -14 -13 -13 -12 -12 -11 -11 -10 -9 -9 -8 -7 -5 -4 -3 -2 -4 -5 -3 -2 -1 -1 -1 -1 -1 -1 -1
-14 -14 -14 -14 -14 -15 -15 -15 -15 -15 -14 -14 -14 -14 -13 -13 -12 -12 -11 -11 -10 -9 -8 -7 -6 -5 -4 -5 -6 -6 -4 -3 -2 -2 -2 -2 -2 -2
-14 -14 -14 -14 -14 -15 -15 -15 -15 -15 -15 -14 -14 -14 -14 -14 -13 -13 -12 -12 -11 -10 -10 -9 -8 -7 -6 -5 -6 -7 -7 -5 -4 -4 -3 -3 -3 -3
-13 -13 -14 -14 -14 -14 -15 -15 -15 -15 -15 -15 -14 -14 -14 -14 -14 -13 -13 -13 -12 -12 -11 -11 -10 -9 -8 -7 -8 -8 -8 -7 -6 -6 -5 -4 -4 -3
-13 -13 -13 -14 -14 -14 -14 -14 -15 -15 -15 -15 -14 -14 -14 -14 -14 -14 -14 -13 -13 -13 -12 -12 -11 -10 -10 -9 -9 -9 -9 -8 -8 -7 -6 -5 -4 -4
Wind_Speed
10 11 10 9 8 8 8 8 8 10 10 6 5 8 10 11 16 16 14 16 11 5 5 6 7 7 9 11 16 23 26 27 27 28 29 28 27 26
10 12 12 9 8 7 7 8 8 9 10 6 7 9 11 11 16 15 14 18 12 6 4 5 7 7 8 9 11 16 21 25 27 28 31 30 28 27
13 13 13 11 8 7 7 7 7 8 10 9 8 9 10 10 11 11 12 11 9 8 6 6 6 8 9 10 11 13 17 22 26 28 29 31 30 29
14 13 12 9 9 8 7 8 8 8 8 10 8 8 9 9 10 10 9 9 7 9 7 6 6 8 9 10 12 13 15 18 24 27 29 30 31 29
13 12 12 10 9 8 8 7 7 7 6 8 8 6 6 6 7 8 8 6 7 7 6 5 6 7 9 11 12 14 15 18 21 26 29 29 30 29
11 10 9 9 8 8 7 7 6 7 6 6 6 5 5 5 5 5 5 4 6 5 4 2 3 5 7 10 12 14 15 17 20 23 26 28 29 30
8 8 7 8 10 8 6 6 6 5 5 5 5 5 5 5 5 5 6 6 6 3 2 1 0 0 1 5 9 13 15 16 18 19 22 24 26 28
7 7 7 7 10 12 13 13 12 9 7 6 5 6 7 7 7 7 6 4 3 2 0 1 1 1 0 1 5 10 13 15 17 17 18 20 22 25
7 7 7 6 7 6 10 14 14 16 14 8 7 7 8 8 8 8 7 5 4 4 1 1 2 2 3 3 3 8 12 14 17 18 20 21 22 23
10 8 7 5 7 8 8 9 9 10 12 8 7 8 8 9 8 7 8 8 6 4 2 1 2 4 5 6 8 9 13 16 19 22 24 27 29 30
14 13 10 9 16 16 11 9 9 10 14 16 16 15 17 17 13 7 6 4 2 1 1 1 3 4 5 7 11 16 19 21 24 27 31 33 36 34
12 13 17 17 19 18 10 8 10 9 10 12 13 15 13 14 17 9 6 4 2 1 2 1 3 4 5 6 8 10 15 23 28 30 32 34 33 27
11 11 12 22 21 21 16 11 13 11 9 9 9 10 10 10 10 9 7 4 2 2 2 1 2 3 5 4 6 9 10 11 17 22 27 29 28 25
10 9 12 21 21 21 16 18 19 15 9 9 10 11 12 12 11 11 10 7 5 3 4 1 2 4 7 7 5 6 9 11 12 13 16 24 26 26
9 15 17 19 18 15 19 21 17 11 10 10 11 11 10 11 11 10 10 9 8 9 9 5 3 5 7 9 8 6 7 9 10 11 12 11 11 13
8 12 16 17 14 15 15 13 11 11 10 10 10 10 10 11 11 11 9 9 7 8 12 14 9 8 9 11 13 12 8 6 7 11 12 11 13 14
7 6 7 8 9 9 9 9 9 10 11 10 10 10 11 11 11 11 10 9 8 7 9 9 14 17 16 11 11 12 12 12 10 10 11 12 9 11
7 4 5 6 7 7 8 8 8 9 9 9 9 10 10 11 11 10 10 10 10 10 9 6 7 10 11 15 16 11 12 11 10 9 9 11 9 7
4 3 3 4 4 5 5 5 6 7 7 7 8 9 9 9 10 10 11 10 10 10 10 9 7 7 11 8 10 14 10 10 10 9 7 7 7 5
2 2 3 3 3 3 4 4 4 5 5 6 7 7 8 9 9 10 10 11 10 10 11 12 11 9 8 8 6 7 13 9 8 8 6 6 6 7
4 4 3 3 3 2 3 3 3 4 4 4 5 6 7 7 8 9 9 14 12 10 11 11 10 12 9 9 10 8 9 14 10 6 5 5 5 3
6 5 5 4 3 3 2 2 2 3 3 3 4 5 5 5 6 8 8 8 8 9 9 9 10 10 10 11 12 10 8 8 13 16 12 7 4 4
7 6 6 5 4 4 3 3 2 2 2 2 3 3 4 4 4 5 6 7 7 8 8 8 8 9 10 10 10 9 9 7 6 7 8 13 11 9
Wind_Direction
306 305 304 298 294 290 293 294 295 300 306 307 329 339 338 331 331 332 331 323 306 267 217 203 203 211 219 222 217 210 206 200 196 194 195 196 197 196
307 306 304 298 293 290 291 292 289 288 288 301 318 320 322 319 321 323 323 322 313 290 239 213 210 212 217 221 220 213 208 201 197 196 198 197 197 196
308 308 304 298 292 293 294 295 295 290 289 298 304 310 309 312 313 314 316 311 307 302 272 237 223 220 221 221 221 217 209 202 197 197 201 200 199 199
306 309 309 307 302 298 296 296 295 292 293 299 303 307 303 303 307 309 309 305 303 296 281 251 232 225 222 222 221 219 213 204 198 196 199 201 200 199
299 303 304 305 303 302 300 299 299 299 294 295 298 299 295 306 314 304 301 303 304 295 287 258 238 231 226 222 220 218 215 209 202 199 198 199 197 196
296 300 303 304 303 306 309 312 313 310 308 307 306 308 309 314 318 316 315 316 300 294 288 278 244 234 230 224 220 217 214 211 206 203 200 197 195 193
305 307 310 325 339 347 357 358 353 351 345 338 333 332 341 344 339 327 313 304 287 264 271 314 341 184 227 224 219 214 211 208 205 202 199 195 191 187
325 326 327 341 356 6 15 21 23 22 13 360 349 349 347 340 327 318 314 303 285 299 77 9 48 87 15 212 209 202 200 197 193 188 184 180 178 173
351 348 351 2 17 11 22 30 26 25 25 18 0 349 340 338 326 313 306 298 283 315 346 105 68 72 35 46 166 185 179 175 170 165 159 155 152 148
8 360 5 22 42 50 41 34 24 18 18 16 5 352 349 345 330 307 297 290 278 284 290 137 90 75 53 50 77 126 140 144 145 142 137 132 128 124
14 18 34 43 53 51 40 32 24 13 12 15 15 11 6 3 2 348 327 292 277 324 357 116 108 83 56 50 59 87 108 117 121 123 122 120 117 112
19 18 32 46 48 47 36 26 27 9 0 1 4 4 0 359 5 2 342 315 296 294 334 98 125 113 80 40 44 60 85 99 106 110 113 114 114 112
26 22 27 38 40 39 37 29 27 19 1 1 1 360 359 359 356 351 345 329 310 298 308 43 109 92 107 96 49 47 63 79 91 96 100 104 108 112
22 21 27 34 34 33 32 27 25 21 10 10 9 6 1 357 351 346 346 348 345 318 322 351 127 141 128 116 100 71 64 68 82 88 92 96 98 102
20 27 31 34 31 27 26 26 23 18 14 13 8 2 355 350 351 353 356 359 13 20 18 26 108 127 124 126 123 118 91 68 73 87 86 86 90 98
22 23 27 30 31 26 24 20 17 18 18 10 2 357 356 1 6 5 5 6 25 27 26 39 57 91 107 112 122 120 109 107 95 93 91 83 78 83
24 15 16 18 20 17 17 16 14 14 14 8 6 4 6 7 9 9 15 23 37 36 36 49 64 71 70 89 109 107 107 105 107 105 101 93 78 83
29 13 14 14 15 13 12 10 11 12 9 8 9 8 8 9 11 15 21 28 35 34 34 37 76 90 78 54 49 97 104 106 104 99 104 106 95 73
23 352 350 353 356 358 358 359 360 360 3 9 11 9 10 12 16 20 22 27 33 34 32 28 36 92 106 94 42 46 90 104 104 94 85 96 108 99
291 291 300 310 320 332 342 347 349 354 3 7 8 9 11 16 20 21 24 30 33 37 40 40 41 57 86 103 99 63 63 82 97 100 97 94 89 91
264 261 261 269 278 293 312 329 340 348 358 1 8 9 10 18 24 23 26 34 39 40 44 40 38 55 74 87 92 80 63 68 81 96 103 102 97 86
254 250 247 245 244 251 269 293 323 340 351 359 3 6 9 18 24 26 29 33 36 40 44 43 44 58 71 88 93 91 80 67 71 76 75 83 117 126
255 247 240 235 228 224 229 243 261 293 320 340 354 3 10 18 20 28 32 36 41 43 46 50 54 63 71 80 88 87 81 75 72 68 56 60 74 85
Height
1436 1433 1430 1428 1426 1425 1423 1422 1420 1414 1411 1410 1410 1409 1408 1409 1411 1412 1415 1419 1423 1427 1432 1436 1440 1444 1449 1454 1460 1466 1472 1478 1485 1491 1497 1504 1509 1515
1431 1428 1426 1424 1422 1421 1419 1417 1416 1414 1410 1408 1408 1406 1405 1405 1407 1408 1410 1413 1417 1422 1426 1430 1434 1438 1443 1448 1454 1460 1465 1471 1478 1485 1492 1498 1504 1510
1427 1424 1422 1420 1418 1417 1415 1413 1411 1410 1407 1405 1405 1404 1403 1402 1403 1403 1405 1408 1411 1416 1420 1424 1428 1432 1437 1442 1448 1453 1459 1465 1472 1479 1486 1493 1499 1505
1423 1420 1418 1416 1415 1413 1411 1409 1407 1406 1404 1402 1401 1401 1400 1400 1399 1399 1401 1403 1406 1411 1415 1419 1423 1427 1431 1436 1442 1448 1454 1460 1466 1473 1479 1486 1493 1499
1419 1417 1415 1413 1411 1410 1408 1406 1404 1402 1401 1399 1398 1398 1397 1396 1395 1396 1397 1399 1402 1406 1410 1414 1418 1422 1426 1431 1436 1442 1448 1454 1461 1467 1473 1480 1487 1493
1416 1414 1413 1411 1409 1407 1405 1403 1401 1399 1398 1396 1395 1394 1394 1393 1392 1392 1393 1395 1398 1402 1405 1409 1413 1417 1421 1425 1430 1435 1441 1448 1454 1461 1467 1474 1480 1487
1413 1411 1410 1409 1407 1406 1404 1401 1399 1397 1395 1394 1392 1391 1391 1390 1390 1390 1391 1392 1395 1398 1401 1404 1408 1411 1415 1420 1424 1429 1435 1441 1448 1455 1461 1468 1474 1481
1411 1409 1408 1407 1406 1404 1402 1400 1398 1396 1394 1392 1391 1390 1389 1388 1387 1387 1388 1390 1392 1394 1396 1399 1403 1406 1410 1415 1419 1424 1429 1435 1442 1448 1455 1462 1469 1475
1411 1409 1407 1406 1405 1403 1402 1400 1398 1396 1394 1392 1390 1388 1387 1385 1384 1384 1384 1385 1387 1390 1394 1397 1400 1403 1406 1410 1414 1418 1423 1429 1436 1443 1449 1456 1463 1470
1412 1410 1407 1406 1405 1404 1402 1400 1398 1395 1393 1391 1389 1387 1385 1383 1382 1381 1381 1382 1384 1387 1390 1393 1396 1400 1404 1407 1410 1414 1419 1425 1431 1437 1444 1451 1458 1465
1415 1412 1411 1409 1408 1406 1404 1401 1398 1396 1393 1391 1388 1386 1383 1381 1379 1378 1378 1379 1380 1383 1386 1389 1393 1398 1402 1405 1409 1413 1417 1422 1428 1434 1440 1447 1453 1460
1419 1416 1415 1414 1411 1409 1405 1403 1399 1397 1394 1391 1388 1385 1382 1379 1376 1375 1375 1376 1378 1380 1382 1386 1390 1394 1400 1405 1408 1412 1416 1421 1427 1432 1438 1444 1449 1455
1424 1421 1419 1417 1415 1412 1408 1405 1403 1399 1395 1392 1388 1384 1381 1378 1376 1374 1373 1374 1375 1377 1379 1383 1386 1390 1395 1403 1408 1412 1416 1420 1425 1431 1437 1443 1449 1454
1430 1426 1424 1420 1417 1414 1411 1408 1404 1401 1397 1393 1389 1385 1381 1378 1375 1373 1372 1372 1373 1375 1378 1381 1384 1388 1392 1399 1407 1414 1418 1422 1427 1432 1437 1444 1450 1456
1433 1431 1427 1423 1419 1416 1413 1410 1406 1402 1398 1395 1391 1387 1384 1380 1377 1374 1373 1372 1373 1374 1377 1380 1384 1388 1392 1396 1404 1413 1418 1425 1430 1435 1440 1446 1452 1458
1435 1432 1429 1425 1422 1418 1415 1411 1408 1405 1402 1398 1395 1391 1387 1383 1379 1376 1374 1373 1373 1374 1376 1379 1383 1387 1392 1397 1403 1411 1419 1425 1432 1437 1442 1448 1455 1461
1437 1434 1430 1426 1423 1420 1417 1414 1411 1408 1404 1401 1398 1394 1390 1386 1383 1379 1377 1375 1374 1375 1376 1379 1383 1387 1392 1398 1404 1411 1418 1425 1432 1439 1444 1450 1456 1462
1439 1435 1432 1429 1426 1423 1420 1417 1414 1411 1408 1405 1401 1398 1394 1391 1388 1385 1382 1379 1378 1378 1379 1382 1385 1388 1393 1400 1407 1412 1418 1426 1433 1440 1446 1451 1456 1462
1440 1437 1434 1431 1428 1425 1423 1420 1417 1414 1411 1408 1405 1402 1399 1396 1393 1390 1388 1385 1384 1383 1384 1386 1389 1391 1394 1401 1410 1416 1420 1426 1433 1440 1446 1452 1457 1462
1439 1437 1434 1432 1429 1427 1424 1422 1419 1417 1414 1412 1409 1406 1403 1401 1398 1396 1394 1392 1390 1389 1389 1390 1392 1395 1397 1402 1409 1417 1424 1429 1434 1440 1446 1452 1457 1462
1437 1435 1433 1431 1429 1427 1425 1423 1421 1419 1417 1414 1412 1410 1408 1406 1403 1402 1400 1399 1397 1396 1395 1396 1397 1400 1402 1406 1411 1418 1425 1431 1436 1440 1446 1451 1456 1460
1434 1432 1430 1429 1428 1426 1425 1423 1422 1420 1419 1417 1415 1413 1412 1410 1409 1407 1406 1404 1403 1403 1402 1403 1405 1406 1408 1411 1415 1420 1426 1432 1437 1441 1447 1451 1454 1458
1430 1427 1426 1425 1424 1424 1423 1422 1422 1421 1420 1418 1417 1416 1415 1414 1413 1412 1411 1410 1410 1409 1409 1410 1411 1412 1414 1417 1420 1424 1429 1434 1438 1443 1447 1451 1454 1458